Akron Canton, OH

3:12 AM EST on November 19, 2019 (GMT -0500)
Akron-Canton Regional

Weather History for KCAK - October, 2019

Change the Weather History Date:

Sunday, October 20, 2019

  Actual Average Record
Temperature  
Mean Temperature 61 °F 50 °F  
Max Temperature 73 °F 60 °F 82 °F (1920)
Min Temperature 48 °F 41 °F 20 °F (1952)
Degree Days  
Heating Degree Days 4 15  
Month to date heating degree days 151 235  
Since 1 July heating degree days 151 374  
Cooling Degree Days 0 0  
Month to date cooling degree days 41 3  
Year to date cooling degree days 1088 649  
Growing Degree Days 10 (Base 50)    
Moisture  
Dew Point 46 °F    
Average Humidity 62    
Maximum Humidity 80    
Minimum Humidity 44    
Precipitation  
Precipitation 0.00 in 0.08 in 1.72 in (2016)
Month to date precipitation 0.86 1.81  
Year to date precipitation 36.03 32.46  
Snow  
Snow 0.00 in 0.00 in - ()
Month to date snowfall 0.0 0.1  
Since 1 July snowfall 0.0 0.1  
Since 1 September snowfall 0.0 0.1  
Snow Depth 0.00 in    
Sea Level Pressure  
Sea Level Pressure 29.90 in    
Wind  
Wind Speed 4 mph (SSE)    
Max Wind Speed 9 mph    
Max Gust Speed 12 mph    
Visibility 10 miles    
Events      
T = Trace of Precipitation, MM = Missing Value Source: NWS Daily Summary

Daily Weather History Graph

Daily Weather History Graph

Search for Another Location

Airport or City:

Astronomy

Oct. 20, 2019 Rise Set
Actual Time 7:42 AM EDT 6:38 PM EDT
Civil Twilight 7:14 AM EDT 7:05 PM EDT
Nautical Twilight 6:42 AM EDT 7:37 PM EDT
Astronomical Twilight 6:10 AM EDT 8:09 PM EDT
Moon 11:43 PM EDT (10/20) 2:10 PM EDT (10/20)
Length of Visible Light 11h 51m
Length of Day
10h 55m
Waning Gibbous, 59% of the Moon is Illuminated
Oct 20
Waning Gibbous
Oct 21
Last Quarter
Oct 27
New
Nov 4
First Quarter
Nov 12
Full

Hourly Weather History & Observations

Time (EDT) Temp. Dew Point Humidity Pressure Visibility Wind Dir Wind Speed Gust Speed Precip Events Conditions
12:51 AM 48.9 °F 41.0 °F 74% 29.88 in 10.0 mi SSE 3.5 mph - N/A   Mostly Cloudy
1:51 AM 48.9 °F 41.0 °F 74% 29.86 in 10.0 mi SSE 5.8 mph - N/A   Mostly Cloudy
2:51 AM 48.0 °F 42.1 °F 80% 29.86 in 10.0 mi SE 3.5 mph - N/A   Scattered Clouds
3:51 AM 48.9 °F 42.1 °F 77% 29.84 in 10.0 mi SE 3.5 mph - N/A   Mostly Cloudy
4:51 AM 50.0 °F 43.0 °F 77% 29.84 in 10.0 mi SSE 5.8 mph - N/A   Mostly Cloudy
5:51 AM 48.9 °F 42.1 °F 77% 29.86 in 10.0 mi SE 3.5 mph - N/A   Mostly Cloudy
6:51 AM 48.9 °F 43.0 °F 80% 29.87 in 10.0 mi SSE 3.5 mph - N/A   Overcast
7:51 AM 48.9 °F 43.0 °F 80% 29.87 in 10.0 mi SSE 5.8 mph - N/A   Mostly Cloudy
8:51 AM 51.1 °F 45.0 °F 80% 29.89 in 10.0 mi South 4.6 mph - N/A   Mostly Cloudy
9:51 AM 57.0 °F 46.9 °F 69% 29.90 in 10.0 mi South 5.8 mph - N/A   Scattered Clouds
10:51 AM 60.1 °F 46.9 °F 62% 29.91 in 10.0 mi SSW 5.8 mph - N/A   Partly Cloudy
11:51 AM 64.0 °F 48.0 °F 56% 29.91 in 10.0 mi Variable 4.6 mph - N/A   Partly Cloudy
12:51 PM 66.9 °F 48.0 °F 51% 29.91 in 10.0 mi SSW 4.6 mph - N/A   Partly Cloudy
1:51 PM 70.0 °F 48.0 °F 46% 29.89 in 10.0 mi Calm Calm - N/A   Partly Cloudy
2:51 PM 72.0 °F 48.0 °F 43% 29.89 in 10.0 mi Variable 4.6 mph - N/A   Partly Cloudy
3:51 PM 72.0 °F 48.0 °F 43% 29.89 in 10.0 mi Calm Calm - N/A   Partly Cloudy
4:51 PM 72.0 °F 48.9 °F 44% 29.90 in 10.0 mi Calm Calm - N/A   Scattered Clouds
5:51 PM 70.0 °F 50.0 °F 49% 29.89 in 10.0 mi West 4.6 mph - N/A   Partly Cloudy
6:51 PM 63.0 °F 50.0 °F 63% 29.92 in 10.0 mi SW 3.5 mph - N/A   Partly Cloudy
7:51 PM 61.0 °F 50.0 °F 67% 29.94 in 10.0 mi Calm Calm - N/A   Scattered Clouds
8:51 PM 60.1 °F 51.1 °F 72% 29.96 in 10.0 mi North 6.9 mph - N/A   Scattered Clouds
9:51 PM 57.9 °F 51.1 °F 78% 29.97 in 10.0 mi NNW 4.6 mph - N/A   Mostly Cloudy
10:51 PM 57.9 °F 51.1 °F 78% 29.99 in 10.0 mi North 4.6 mph - N/A   Mostly Cloudy
11:51 PM 57.0 °F 51.1 °F 81% 29.99 in 10.0 mi NNE 6.9 mph - N/A   Mostly Cloudy